Tracking 28126 objects as of 1-Oct-2023
HD Live streaming from Space Station
objects crossing your sky now

STARLINK-3557

Track STARLINK-3557 now!
10-day predictions
STARLINK-3557 is classified as:


NORAD ID: 51802
Int'l Code: 2022-017AL
Perigee: 545.6 km
Apogee: 548.1 km
Inclination: 53.2 °
Period: 95.4 minutes
Semi major axis: 6917 km
RCS: Unknown
Launch date: February 25, 2022
Source: United States (US)
Launch site: AIR FORCE WESTERN TEST RANGE (AFWTR)
Your satellite tracking list
Your tracking list is empty




NASA's NSSDC Master Catalog

Two Line Element Set (TLE):
1 51802U 22017AL  23273.31192054  .00003788  00000-0  25595-3 0  9995
2 51802  53.2195  30.6648 0001775  61.5191 298.5980 15.08845622 89350
Source of the keplerian elements: AFSPC